Regional Weather Roundup
Issued by NWS Cleveland, OH

Home | Current Version | Previous Version | Graphics & Text | Print | Product List | Glossary On
Versions: 1 2 3 4 5 6 7 8 9 10 11 12 13 14 15 16 17 18 19 20 21 22 23 24 25 26 27 28 29 30 31 32 33 34 35 36 37 38 39 40 41 42 43 44 45 46 47 48 49 50
000
ASUS41 KCLE 280302
RWRCLE
OHIO REGIONAL WEATHER ROUNDUP
NATIONAL WEATHER SERVICE CLEVELAND, OH
1100 PM EDT WED JUL 27 2016

NOTE: "FAIR" INDICATES FEW OR NO CLOUDS BELOW 12,000 FEET WITH NO
SIGNIFICANT WEATHER AND/OR OBSTRUCTIONS TO VISIBILITY.

OHZ001>008-015>018-024>027-034-035-043-044-280400-
   NORTHWEST OHIO

CITY           SKY/WX    TMP DP  RH WIND       PRES   REMARKS
DEFIANCE       CLOUDY    80  64  58 CALM      29.95R
FINDLAY        CLEAR     79  59  50 E6        29.95R
TOLEDO EXPRESS NOT AVBL
TOLEDO EXEC    PTCLDY    78  65  63 CALM      29.95R
LIMA           PTCLDY    76  65  68 CALM      29.97R
$$

OHZ009>014-019>023-028>033-038-089-280400-
   NORTHEAST OHIO

CITY           SKY/WX    TMP DP  RH WIND       PRES   REMARKS
CLE-HOPKINS    PTCLDY    79  57  46 S3        29.97R
CLE-LAKEFRONT  CLEAR     81  57  43 SE5       29.94R
CUY CO. ARPT   CLEAR    N/A N/A N/A CALM      29.96R
LORAIN-ELYRIA  CLEAR     70  61  73 CALM      29.96R
ASHTABULA      CLEAR     66  64  93 CALM      29.97S
AKRON-CANTON   PTCLDY    74  60  61 NE5       29.98R
WOOSTER        PTCLDY    73  61  65 CALM      29.98R
MANSFIELD      MOCLDY    75  62  64 NE3       29.99R
YOUNGSTOWN     MOCLDY    70  62  76 E5        29.97S
$$

OHZ042-051>053-060>062-070>072-077>081-280400-
  SOUTHWEST OHIO

CITY           SKY/WX    TMP DP  RH WIND       PRES   REMARKS
CINC-COVINGTON CLOUDY    80  72  76 CALM      29.96R
CINC-LUNKEN    MOCLDY    77  75  93 CALM      29.94S
HAMILTON       CLOUDY    80  71  74 W3        29.96R
DAYTON         MOCLDY    78  64  61 N6        29.98R
WRIGHT-PAT AFB MOCLDY    80  67  64 N2        29.96R
DAYTON GENERAL PTCLDY    82  64  54 NW5       29.96R
WILMINGTON     CLOUDY    78  73  84 SW5       29.96R
$$

OHZ036-037-039>041-045>050-054>059-063>069-073>076-082>088-280400-
  CENTRAL AND SOUTHEAST OHIO

CITY           SKY/WX    TMP DP  RH WIND       PRES   REMARKS
COLUMBUS       MOCLDY    80  65  59 NE3       29.95R
OSU AIRPORT    CLOUDY    80  66  62 CALM      29.95R
BOLTON FIELD   PTCLDY    77  71  80 CALM      29.96R
RICKENBACK AFB PTCLDY    79  70  74 NW3       29.95R
NEWARK         PTCLDY    75  71  87 CALM      29.95R
MARION         PTCLDY    75  65  70 NE3       29.97R
LANCASTER      PTCLDY    75  73  93 SW3       29.96R
ZANESVILLE     PTCLDY    79  69  71 CALM      29.95R
NEW PHILLY     MOCLDY    79  63  57 CALM      29.96R
$$




USA.gov is the U.S. government's official web portal to all federal, state and local government web resources and services.